カタログに戻る

KUIPER-00063

運用中通信LEO
NORAD 64523·PAYLOAD·🇺🇸 United States

打ち上げ Jun 23, 2025 から Cape Canaveral Space Force Station

Loading…

次のパス (今後24時間)

TLE

最新Source: CelesTrak SupGP

元期: Sep 14, 2026, 19:53 UTC

1 64523C 25134Z   26257.82894676 -.00001158  00000+0 -15152-3 0  2577
2 64523  51.9006 121.7726 0000769  99.9106 182.5864 14.79933815    10

AllMySatでKUIPER-00063をリアルタイム追跡

Download on the App Store